Home   Weather   Rankin Inlet   Past weeks

Flag for Canada Past Weather in Rankin Inlet, Nunavut, Canada — Yesterday and Last 2 Weeks

16 °F

Ice fog.

Feels Like: 4 °F
Forecast: 17 / 26 °F
Wind: 9 mph from West

Location: Rankin Inlet

Current Time: Oct 27, 2016 at 12:11:39 AM

Latest Report: Oct 26, 2016 at 11:00 PM

Visibility: 0 mi

Pressure: 30.14 "Hg

Humidity: 93%

Dew Point: 14 °F

Location of Rankin InletLocation

Past Weather in Rankin Inlet — Graph


Rankin Inlet Temperature Yesterday

Maximum temperature yesterday: 30 °F (at 11:00 AM)
Minimum temperature yesterday: 16 °F (at 10:00 PM)
Average temperature yesterday: 26 °F

High & Low Weather Summary for the Past Weeks

High36 °F (Oct 22, 9:00 AM)100% (Oct 16, 7:00 PM)30.57 "Hg (Oct 16, 7:00 PM)
Low12 °F (Oct 15, 6:00 AM)60% (Oct 24, 2:00 PM)29.53 "Hg (Oct 12, 10:00 PM)
Average27 °F85%30.06 "Hg
* Reported Oct 11 11:00 PM — Oct 26 11:00 PM, Rankin Inlet, Weather by CustomWeather, © 2016

Note: Actual official high and low records may vary slightly from our data, if they occured in-between our weather recording intervals... More about our weather records


Rankin Inlet Weather History for the Previous 24 Hours

Scroll right to see more
Time TempWeatherWind HumidityBarometerVisibility
11:00 PM
Wed, Oct 26
16 °FIce fog.9 mph93%30.14 "Hg1 mi
10:00 PM16 °FIce fog.8 mph100%30.14 "Hg1 mi
9:00 PM19 °FIce fog.10 mph93%30.15 "Hg0 mi
8:00 PM21 °FIce fog.14 mph100%30.16 "Hg2 mi
7:00 PM23 °FPassing clouds.8 mph93%30.17 "Hg15 mi
6:00 PM23 °FPartly cloudy.9 mph93%30.16 "Hg15 mi
5:00 PM23 °FBroken clouds.13 mph93%30.16 "Hg15 mi
4:00 PM28 °FPartly sunny.12 mph93%30.16 "Hg15 mi
3:00 PM28 °FPartly sunny.10 mph93%30.17 "Hg10 mi
2:00 PM28 °FPartly sunny.9 mph93%30.18 "Hg10 mi
1:49 PM30 °FPartly sunny.12 mph86%30.18 "Hg8 mi
1:00 PM30 °FLight snow. Mostly cloudy.10 mph93%30.18 "Hg3 mi
12:00 PM30 °FLight snow. Mostly cloudy.10 mph93%30.20 "Hg3 mi
11:00 AM30 °FLight snow. Partly sunny.9 mph93%30.22 "Hg3 mi
10:00 AM28 °FLight snow. Partly sunny.10 mph100%30.22 "Hg3 mi
9:00 AM28 °FLight snow. Mostly cloudy.10 mph100%30.24 "Hg4 mi
8:00 AM28 °FLight snow. Low clouds.9 mph100%30.25 "Hg5 mi
7:00 AM28 °FLight snow. Mostly cloudy.5 mph100%30.27 "Hg6 mi
6:00 AM28 °FLight snow. Mostly cloudy.5 mph93%30.28 "Hg6 mi
5:00 AM27 °FLight snow. Mostly cloudy.2 mph93%30.29 "Hg10 mi
4:00 AM27 °FMostly cloudy.7 mph93%30.31 "Hg15 mi
3:00 AM27 °FOvercast.6 mph93%30.32 "Hg15 mi
2:00 AM28 °FLight snow. Low clouds.7 mph93%30.32 "Hg10 mi
1:00 AM27 °FLight snow. Mostly cloudy.7 mph100%30.33 "Hg10 mi
12:00 AM28 °FLight snow. Mostly cloudy.10 mph93%30.34 "Hg10 mi
Weather by CustomWeather, © 2016

See weather overviewHow to use our weather pages